Location: Harbor Island
(32.3990°N, 80.4435°W)
Time: 19:50:19
(UTC-05:00)

Daily predictions for brighter satellites

Satellite Brightness Start Highest point End
(mag) Time Altitude Azimuth Time Altitude Azimuth Time Altitude Azimuth
Cosmos 44 4.3 18:30:29 10° N 18:34:58 30° NE 18:39:35 10° ESE
FENGYUN 3A 3.7 18:30:56 10° SSE 18:36:16 69° ENE 18:41:39 10° N
Cosmos 2227 Rocket 3.5 18:34:25 10° SW 18:39:46 44° WNW 18:45:09 10° N
CENTAUR R/B 2.4 18:36:06 10° SSW 18:41:52 85° ESE 18:48:26 10° NNE
Cosmos 2233 Rocket 4.2 18:38:22 10° N 18:44:39 82° W 18:50:50 10° S
Cosmos 2237 Rocket 2.3 18:40:08 10° NNW 18:45:46 84° WSW 18:51:24 10° SSE
Cosmos 1378 Rocket 4.3 18:42:51 10° NNE 18:46:45 30° E 18:50:38 10° SE
Cosmos 1633 2.5 18:46:40 10° S 18:50:09 60° E 18:53:40 10° NNE
SL-16 R/B 2.6 18:45:10 10° N 18:50:28 39° ENE 18:55:43 10° SE
Cosmos 1782 Rocket 4.4 18:47:05 10° SSE 18:50:51 28° E 18:54:37 10° NNE
MOS 1 4.3 18:46:27 10° SSE 18:52:06 83° ENE 18:57:47 10° NNW
SJ-6B 4.3 18:49:53 10° ESE 18:52:14 16° ENE 18:54:38 10° NNE
Shenzhou-11 Module 3.7 18:49:48 10° WNW 18:52:31 31° SW 18:55:13 10° SSE
Cosmos 2297 Rocket 3.7 18:48:19 10° SW 18:53:33 39° WNW 18:58:50 10° N
H-2A R/B 3.1 18:51:02 10° SSE 18:54:46 45° ENE 18:58:30 10° N
Lacrosse 5 2.5 18:51:22 10° NW 18:56:20 59° SW 19:01:17 10° SSE
Sich 1 Rocket 3.9 18:52:13 10° SSE 18:56:31 45° E 19:00:48 10° NNE
ERS-2 2.8 18:57:24 10° SE 19:00:44 33° ENE 19:04:05 10° N
GPS 2-05 Rocket1 3.6 19:00:18 10° SW 19:03:11 32° SSE 19:04:53 18° ESE
Cosmos 1464 Rocket 4.0 18:58:04 10° N 19:04:05 57° E 19:10:06 10° SSE
Meteor 1-14 Rocket 4.4 18:59:21 10° S 19:05:06 81° W 19:11:00 10° N
Meteor 1-20 Rocket 4.2 19:00:06 10° S 19:05:46 84° E 19:11:34 10° N
MOS 1-B Rocket 4.5 19:00:06 10° S 19:06:44 69° WSW 19:12:34 10° NNW
Cosmos 158 Rocket 4.5 19:03:07 10° SSW 19:07:57 59° WNW 19:12:46 10° N
Okean 1 3.8 19:07:18 10° NNE 19:11:00 37° E 19:14:41 10° SSE
Okean 2 Rocket 3.9 19:07:28 10° SSE 19:11:11 28° E 19:14:56 10° NNE
Iridium 4 Rocket 3.2 19:07:03 10° N 19:11:41 56° E 19:15:56 10° SSE
Cosmos 1048 Rocket 4.1 19:08:49 10° SSW 19:14:10 85° WNW 19:19:29 10° NNE
Cosmos 1452 Rocket 3.4 19:08:57 10° NNW 19:14:14 84° ENE 19:19:29 10° SSE
CZ-2D R/B 4.2 19:12:21 17° ESE 19:14:25 26° ENE 19:17:40 10° NNE
DELTA 2 R/B (2) 4.0 19:13:54 10° W 19:15:31 33° SSW 19:15:49 30° S
Cosmos 1072 Rocket 4.4 19:09:40 10° N 19:15:55 81° E 19:22:14 10° S
SPOT 3 Rocket 3.8 19:10:50 10° S 19:16:00 74° WSW 19:21:14 10° NNW
Cosmos 1812 3.3 19:12:27 10° NNW 19:16:17 59° W 19:20:04 10° S
Cosmos 2263 Rocket 3.1 19:18:21 10° SSE 19:22:39 23° E 19:23:05 23° E
Cosmos 1602 3.7 19:21:09 10° S 19:24:58 57° E 19:28:48 10° NNE
Okean 3 4.1 19:21:49 10° NNW 19:25:55 58° W 19:30:00 10° S
OAO 2 Rocket 3.4 19:22:31 10° W 19:27:28 68° N 19:29:58 28° ENE
IUS-18 SRM-1 3.7 19:28:28 10° WSW 19:30:29 23° S 19:32:12 17° SE
Meteor 1-18 Rocket 4.2 19:26:38 10° N 19:32:13 83° W 19:37:45 10° S
Cosmos 1420 Rocket 4.1 19:28:33 10° NNW 19:33:50 79° WSW 19:39:08 10° S
Cosmos 921 Rocket 3.0 19:30:04 10° N 19:34:30 58° ENE 19:37:59 16° SSE
Cosmos 2346 Rocket 4.5 19:31:33 10° SSE 19:37:35 56° E 19:43:36 10° NNE
FREGAT/IRIS 3.4 19:35:43 10° S 19:38:36 51° W 19:41:29 10° NNW
Cosmos 2034 Rocket 3.9 19:33:51 10° N 19:40:16 84° E 19:46:37 10° S
Tiangong 2 1.1 19:38:58 10° WNW 19:42:07 71° SW 19:42:18 69° S
Cosmos 1437 Rocket 3.4 19:38:46 10° SSW 19:42:44 57° W 19:46:46 10° N
Cosmos 2227 4.2 19:37:58 10° SSW 19:43:43 82° WNW 19:49:27 10° NNE
Meteor 2-4 Rocket 4.2 19:39:57 10° N 19:45:15 37° ENE 19:45:18 37° ENE
Meteor 1-19 Rocket 4.2 19:40:26 10° N 19:45:52 56° E 19:51:19 10° SSE
Meteor 1-11 Rocket 3.7 19:40:31 10° S 19:45:57 58° E 19:51:29 10° NNE
Cosmos 1816 Rocket 4.4 19:43:22 10° S 19:49:43 86° E 19:56:07 10° N
Cosmos 44 Rocket 3.6 19:44:44 10° NNW 19:49:48 73° WSW 19:54:05 15° SSE
ARGOS Delta rocket 3.7 19:45:27 10° N 19:50:14 83° W 19:54:44 10° SSW
SeaSat 1 2.6 19:50:14 46° ENE 19:50:39 48° ENE 19:55:24 10° N
Cosmos 1634 Rocket 4.4 19:46:55 10° NNE 19:52:05 37° ENE 19:52:05 37° ENE
Gbstr 26 Del rocket 3.8 19:50:32 10° WSW 19:54:02 39° NW 19:55:12 30° N
Meteor 1-4 Rocket 3.3 19:53:20 10° S 19:55:43 41° SSW 19:55:43 41° SSW
USA 215 3.8 19:52:59 11° NNE 19:59:05 56° NW 20:05:25 10° WSW
Envisat 2.8 19:54:30 10° SSE 19:59:34 83° ENE 20:04:40 10° N
Sakura Rocket 4.2 19:56:03 10° WSW 20:01:45 65° S 20:03:57 44° ESE
COSMOS 2455 2.7 19:56:17 10° SSW 20:02:17 81° ESE 20:05:36 28° NNE
Cosmos 1975 Rocket 3.3 19:57:55 10° NNW 20:02:20 70° W 20:06:47 10° S
Resurs 01 Rocket 3.3 20:06:02 22° N 20:06:02 22° N 20:07:44 10° N
CZ-4C R/B 4.0 20:05:45 10° N 20:10:42 26° NE 20:10:42 26° NE
BREEZE-M DEB (TANK) 4.2 20:09:42 10° WSW 20:12:37 43° NNW 20:15:23 25° NNE
Cosmos 494 Rocket 4.4 20:09:32 10° SSW 20:14:42 63° WNW 20:19:03 15° N
Cosmos 1110 Rocket 4.4 20:15:09 10° NNW 20:19:14 53° N 20:19:14 53° N
SL-16 R/B 4.5 20:30:00 10° NW 20:34:14 22° W 20:38:27 10° SSW
Cosmos 2263 Rocket 3.7 21:01:12 10° SW 21:04:55 32° W 21:04:55 32° W
